User: anonymous   Login
Location: Unspecified
(0.0000°N, 0.0000°E)
Time: 00:07:54
(UTC+00:00)
Language:

STARLINK-3813 - Orbit

View from above orbital plane
View from above orbital plane
View from above satellite
View from above satellite

Ground track
Ground track

The orbit is defined by the following mean orbital elements,

1 52482U          26145.08121273 +.00000000 +00000-0 -14679-3 0 00007
2 52482  53.2124  66.1850 0001425  97.5879 262.5275 15.08843613    01
Epoch (UTC): 25 May 2026 01:56:56
Eccentricity: 0.0001425
inclination: 53.2124°
perigee height: 539 km
apogee height: 541 km
right ascension of ascending node: 66.1850°
argument of perigee: 97.5879°
revolutions per day: 15.08843613
mean anomaly at epoch: 262.5275°

The dashed part of the orbit path shows where the satellite is in the earth's shadow,  

DLR